Back to catalog

STARLINK-37339

AliveCommunicationsSSO
NORAD 68735·PAYLOAD·🇺🇸 United States

Launched Apr 15, 2026 from Vandenberg Space Force Base

Loading…

Next Passes (next 24 hours)

TLE

FreshSource: CelesTrak SupGP

Epoch: Sep 14, 2026, 23:25 UTC

1 68735C 26082H   26257.97618056  .00086726  00000+0  26934-2 0  2572
2 68735  97.2847 120.2595 0001678  88.4707 233.3007 15.33379872    15

Track STARLINK-37339 in real time with AllMySat

Download on the App Store